IRIDIUM 14 [+] (25777 NORAD) Tracking and Keplerian Element Data

This shows tracking and keplerian element data for the satellite.

Feedback or suggestion? Click here.




ElementValue
Catalog25777
NameIRIDIUM 14 [+]
Epoch Orbit1129
Epoch Day198.66787049
Epoch Year2018
RAAN58.6725
Inclination86.3945
Eccentricity0.000224
Argument of Perigee89.9736
Mean Anonmoly270.1716
Mean Motion14.34217579
Decay Rate4.8E-07
L11 25777U 99032A 18198.66787049 .00000048 00000-0 10151-4 0 9999
L22 25777 86.3945 58.6725 0002240 89.9736 270.1716 14.34217579 11298

Live tracking and technical data element details for IRIDIUM 14 [+] (NORAD 25777). IRIDIUM 14 [+] can be tracked NOW for your location showing map with azimuth and elevation plus other details from your city location.

Track the satellite on the map from your city or location and see movement details for azimuth, elevation, latitude, longitude, range, height, and movement on the map or in text.







IsCatalogInMostPopularTable: catalog: 25777, numindb: 30
Update: records affected: 1



GetName: 25777 IRIDIUM 14 [+]

Hit Count: updated at: Fri, 20 Jul 2018 07:01:31 GMT